Location: Newark
(13.9550°N, 109.0422°E)
Time: 07:08:39
(UTC+00:00)

Envisat - Visible Passes

Search period start: 16 October 2019 00:00
Search period end: 26 October 2019 00:00
Orbit: 764 x 766 km, 98.1° (Epoch: 15 October)

Date Brightness Start Highest point End Pass type
(mag) Time Alt. Az. Time Alt. Az. Time Alt. Az.
16 Oct 3.9 11:30:03 10° S 11:34:57 50° W 11:39:51 10° NNW visible
17 Oct 3.0 10:53:18 10° SSE 10:58:16 58° ENE 11:03:14 10° N visible
18 Oct 5.3 11:56:22 10° SSW 12:00:26 24° W 12:04:32 10° NW visible
19 Oct 3.3 11:18:40 10° S 11:23:42 69° WSW 11:28:45 10° NNW visible
20 Oct 3.3 10:42:17 10° SSE 10:47:03 42° ENE 10:51:48 10° N visible
20 Oct 6.2 12:24:17 10° WSW 12:25:58 12° W 12:27:39 10° WNW visible
21 Oct 4.8 11:44:40 10° SSW 11:49:10 33° W 11:53:42 10° NW visible
22 Oct 3.0 11:07:23 10° SSE 11:12:28 88° ENE 11:17:33 10° N visible
23 Oct 5.9 12:11:37 10° SW 12:14:42 16° W 12:17:45 10° WNW visible
24 Oct 4.2 11:33:06 10° S 11:37:55 44° W 11:42:45 10° NNW visible
25 Oct 2.9 10:56:13 10° SSE 11:01:14 65° ENE 11:06:15 10° N visible
